| time (UTC) | temp F | wind direction | speed knots | gust knots | rain 1hr in | rain 24hr in | rain mn in | humidity % | barometer mb |
| 20260901131542 | 59 | 331 | 3.5 | 5.2 | 0.00 | 0.00 | 0.00 | 70 | 1005.6 |
| 20260901130042 | 59 | 323 | 3.5 | 8.7 | 0.00 | 0.00 | 0.00 | 71 | 1005.7 |
| 20260901124540 | 59 | 5 | 2.6 | 7.0 | 0.00 | 0.00 | 0.00 | 72 | 1005.4 |
| 20260901123040 | 59 | 12 | 1.7 | 4.3 | 0.00 | 0.00 | 0.00 | 70 | 1005.8 |
| 20260901121550 | 60 | 12 | 2.6 | 6.1 | 0.00 | 0.00 | 0.00 | 69 | 1006.0 |
| 20260901120039 | 60 | 17 | 0.0 | 8.7 | 0.00 | 0.00 | 0.00 | 67 | 1006.2 |
| 20260901114540 | 60 | 9 | 4.3 | 8.7 | 0.00 | 0.00 | 0.00 | 69 | 1005.5 |
| 20260901113044 | 60 | 319 | 4.3 | 9.6 | 0.00 | 0.00 | 0.00 | 68 | 1005.9 |
| 20260901111536 | 59 | 352 | 3.5 | 7.0 | 0.00 | 0.00 | 0.00 | 71 | 1005.9 |
| 20260901110047 | 59 | 351 | 3.5 | 7.0 | 0.00 | 0.00 | 0.00 | 72 | 1005.9 |
| 20260901104545 | 60 | 344 | 2.6 | 4.3 | 0.00 | 0.00 | 0.00 | 71 | 1006.0 |
| 20260901103042 | 60 | 343 | 1.7 | 3.5 | 0.00 | 0.00 | 0.00 | 70 | 1006.0 |
| 20260901101542 | 61 | 343 | 2.6 | 7.0 | 0.00 | 0.00 | 0.00 | 67 | 1005.9 |
| 20260901100050 | 60 | 347 | 4.3 | 7.8 | 0.00 | 0.00 | 0.00 | 69 | 1005.7 |
| 20260901094549 | 59 | 325 | 2.6 | 7.0 | 0.00 | 0.00 | 0.00 | 70 | 1005.9 |
| 20260901093039 | 60 | 319 | 2.6 | 3.5 | 0.00 | 0.00 | 0.00 | 68 | 1006.0 |
| 20260901091543 | 61 | 319 | 1.7 | 3.5 | 0.00 | 0.00 | 0.00 | 68 | 1006.1 |
| 20260901090051 | 61 | 319 | 1.7 | 3.5 | 0.00 | 0.00 | 0.00 | 67 | 1006.1 |
| 20260901084540 | 62 | 319 | 1.7 | 3.5 | 0.00 | 0.00 | 0.00 | 65 | 1006.0 |
| 20260901083042 | 63 | 319 | 2.6 | 5.2 | 0.00 | 0.00 | 0.00 | 61 | 1006.1 |
| 20260901081539 | 64 | 319 | 1.7 | 4.3 | 0.00 | 0.00 | 0.00 | 58 | 1006.2 |
| 20260901080038 | 68 | 319 | 3.5 | 8.7 | 0.00 | 0.00 | 0.00 | 51 | 1006.1 |
| 20260901074542 | 68 | 302 | 6.1 | 8.7 | 0.00 | 0.00 | 0.00 | 51 | 1005.9 |
| 20260901073041 | 68 | 311 | 5.2 | 9.6 | 0.00 | 0.00 | 0.00 | 50 | 1005.9 |
| 20260901071543 | 68 | 306 | 6.1 | 10.4 | 0.00 | 0.00 | 0.00 | 50 | 1006.0 |
| 20260901070051 | 69 | 309 | 6.1 | 11.3 | 0.00 | 0.00 | 0.00 | 50 | 1006.1 |
| 20260901064537 | 69 | 294 | 7.0 | 9.6 | 0.00 | 0.00 | 0.00 | 50 | 1006.2 |
| 20260901063043 | 69 | 306 | 7.0 | 10.4 | 0.00 | 0.00 | 0.00 | 50 | 1006.2 |
| 20260901061541 | 69 | 306 | 6.1 | 11.3 | 0.00 | 0.00 | 0.00 | 50 | 1006.3 |
| 20260901060043 | 69 | 309 | 6.1 | 8.7 | 0.00 | 0.00 | 0.00 | 51 | 1006.5 |
| 20260901054544 | 69 | 311 | 5.2 | 8.7 | 0.00 | 0.00 | 0.00 | 52 | 1006.6 |
| 20260901053042 | 69 | 313 | 6.1 | 9.6 | 0.00 | 0.00 | 0.00 | 52 | 1006.6 |
| 20260901051547 | 69 | 310 | 5.2 | 9.6 | 0.00 | 0.00 | 0.00 | 52 | 1006.7 |
| 20260901050041 | 70 | 306 | 6.1 | 10.4 | 0.00 | 0.00 | 0.00 | 50 | 1006.7 |
| 20260901044538 | 70 | 297 | 6.1 | 10.4 | 0.00 | 0.00 | 0.00 | 50 | 1006.8 |
| 20260901043045 | 71 | 310 | 6.1 | 11.3 | 0.00 | 0.00 | 0.00 | 48 | 1006.6 |
| 20260901041542 | 72 | 305 | 7.8 | 11.3 | 0.00 | 0.00 | 0.00 | 46 | 1006.7 |
| 20260901040042 | 72 | 303 | 7.0 | 12.2 | 0.00 | 0.00 | 0.00 | 46 | 1006.7 |
| 20260901034543 | 72 | 294 | 7.8 | 12.2 | 0.00 | 0.00 | 0.00 | 46 | 1006.8 |
| 20260901033041 | 72 | 304 | 7.0 | 9.6 | 0.00 | 0.00 | 0.00 | 47 | 1006.8 |
| 20260901031547 | 73 | 305 | 7.0 | 10.4 | 0.00 | 0.00 | 0.00 | 48 | 1006.8 |
| 20260901030040 | 73 | 313 | 5.2 | 8.7 | 0.00 | 0.00 | 0.00 | 50 | 1006.9 |
| 20260901024543 | 74 | 315 | 5.2 | 8.7 | 0.00 | 0.00 | 0.00 | 50 | 1006.7 |
| 20260901023046 | 74 | 315 | 4.3 | 8.7 | 0.00 | 0.00 | 0.00 | 51 | 1006.8 |
| 20260901021547 | 75 | 317 | 4.3 | 7.0 | 0.00 | 0.00 | 0.00 | 52 | 1006.8 |
| 20260901020041 | 76 | 319 | 3.5 | 7.0 | 0.00 | 0.00 | 0.00 | 51 | 1006.8 |
| 20260901014545 | 78 | 320 | 3.5 | 7.0 | 0.00 | 0.00 | 0.00 | 50 | 1006.9 |
| 20260901013056 | 79 | 320 | 3.5 | 5.2 | 0.00 | 0.00 | 0.00 | 50 | 1007.1 |
| 20260901011537 | 80 | 320 | 3.5 | 7.8 | 0.00 | 0.00 | 0.00 | 49 | 1007.0 |
| 20260901010049 | 80 | 321 | 3.5 | 7.0 | 0.00 | 0.00 | 0.00 | 49 | 1007.2 |
| 20260901004541 | 79 | 321 | 3.5 | 7.0 | 0.00 | 0.00 | 0.00 | 52 | 1007.4 |
| 20260901003048 | 79 | 325 | 2.6 | 5.2 | 0.00 | 0.00 | 0.00 | 55 | 1007.7 |
| 20260901001540 | 79 | 327 | 2.6 | 4.3 | 0.00 | 0.00 | 0.00 | 54 | 1008.0 |
| 20260901000037 | 80 | 327 | 2.6 | 7.0 | 0.00 | 0.00 | 0.00 | 53 | 1008.2 |
| 20260831234540 | 80 | 329 | 2.6 | 5.2 | 0.00 | 0.00 | 0.00 | 49 | 1008.3 |
| 20260831233037 | 80 | 327 | 3.5 | 7.0 | 0.00 | 0.00 | 0.00 | 49 | 1008.5 |
| 20260831231540 | 81 | 329 | 2.6 | 7.8 | 0.00 | 0.00 | 0.00 | 48 | 1008.8 |
| 20260831230038 | 81 | 330 | 2.6 | 7.0 | 0.00 | 0.00 | 0.00 | 51 | 1009.0 |
| 20260831224538 | 80 | 331 | 2.6 | 5.2 | 0.00 | 0.00 | 0.00 | 49 | 1009.2 |
| 20260831223042 | 80 | 331 | 3.5 | 7.8 | 0.00 | 0.00 | 0.00 | 46 | 1009.5 |
| 20260831221543 | 80 | 331 | 3.5 | 7.0 | 0.00 | 0.00 | 0.00 | 47 | 1009.7 |
| 20260831220036 | 80 | 332 | 3.5 | 7.8 | 0.00 | 0.00 | 0.00 | 45 | 1009.9 |
| 20260831214541 | 81 | 334 | 3.5 | 7.8 | 0.00 | 0.00 | 0.00 | 42 | 1010.1 |
| 20260831213044 | 81 | 331 | 4.3 | 8.7 | 0.00 | 0.00 | 0.00 | 39 | 1010.6 |
| 20260831211543 | 81 | 328 | 4.3 | 9.6 | 0.00 | 0.00 | 0.00 | 38 | 1010.6 |
| 20260831210040 | 80 | 336 | 4.3 | 10.4 | 0.00 | 0.00 | 0.00 | 39 | 1010.9 |
| 20260831204539 | 80 | 338 | 4.3 | 8.7 | 0.00 | 0.00 | 0.00 | 40 | 1011.2 |
| 20260831203041 | 79 | 333 | 3.5 | 9.6 | 0.00 | 0.00 | 0.00 | 41 | 1011.4 |
| 20260831201552 | 78 | 342 | 5.2 | 8.7 | 0.00 | 0.00 | 0.00 | 42 | 1011.8 |
| 20260831200043 | 77 | 349 | 4.3 | 8.7 | 0.00 | 0.00 | 0.00 | 42 | 1012.1 |
| 20260831194626 | 76 | 348 | 3.5 | 7.8 | 0.00 | 0.00 | 0.00 | 45 | 1012.3 |
| 20260831193036 | 76 | 351 | 3.5 | 7.8 | 0.00 | 0.00 | 0.00 | 46 | 1012.6 |
| 20260831191538 | 74 | 5 | 3.5 | 8.7 | 0.00 | 0.00 | 0.00 | 47 | 1012.9 |
| 20260831190042 | 73 | 5 | 3.5 | 8.7 | 0.00 | 0.00 | 0.00 | 49 | 1013.3 |
| 20260831184543 | 72 | 11 | 3.5 | 7.8 | 0.00 | 0.00 | 0.00 | 50 | 1013.5 |
| 20260831183043 | 71 | 14 | 4.3 | 8.7 | 0.00 | 0.00 | 0.00 | 51 | 1013.8 |
| 20260831181545 | 70 | 15 | 4.3 | 11.3 | 0.00 | 0.00 | 0.00 | 52 | 1014.0 |
| 20260831180036 | 70 | 18 | 5.2 | 10.4 | 0.00 | 0.00 | 0.00 | 53 | 1014.0 |
| 20260831174543 | 69 | 9 | 4.3 | 9.6 | 0.00 | 0.00 | 0.00 | 52 | 1014.3 |
| 20260831173040 | 68 | 352 | 5.2 | 9.6 | 0.00 | 0.00 | 0.00 | 56 | 1014.4 |
| 20260831171544 | 67 | 352 | 4.3 | 8.7 | 0.00 | 0.00 | 0.00 | 58 | 1014.5 |
| 20260831170040 | 66 | 352 | 4.3 | 8.7 | 0.00 | 0.00 | 0.00 | 59 | 1014.6 |
| 20260831164535 | 65 | 348 | 5.2 | 10.4 | 0.00 | 0.00 | 0.00 | 55 | 1014.6 |
| 20260831163040 | 64 | 338 | 4.3 | 8.7 | 0.00 | 0.00 | 0.00 | 57 | 1014.9 |
| 20260831161541 | 62 | 333 | 4.3 | 9.6 | 0.00 | 0.00 | 0.00 | 58 | 1015.0 |
| 20260831160043 | 61 | 320 | 4.3 | 7.8 | 0.00 | 0.00 | 0.00 | 57 | 1015.3 |
| 20260831154604 | 60 | 319 | 2.6 | 7.0 | 0.00 | 0.00 | 0.00 | 59 | 1015.3 |
| 20260831153042 | 58 | 319 | 3.5 | 7.0 | 0.00 | 0.00 | 0.00 | 61 | 1015.3 |
| 20260831151536 | 57 | 319 | 3.5 | 7.0 | 0.00 | 0.00 | 0.00 | 65 | 1015.3 |
| 20260831150041 | 56 | 319 | 4.3 | 7.8 | 0.00 | 0.00 | 0.00 | 63 | 1015.2 |
| 20260831144546 | 55 | 306 | 2.6 | 6.1 | 0.00 | 0.00 | 0.00 | 65 | 1015.1 |
| 20260831143036 | 54 | 306 | 5.2 | 8.7 | 0.00 | 0.00 | 0.00 | 66 | 1014.7 |
| 20260831141543 | 52 | 256 | 3.5 | 7.8 | 0.00 | 0.00 | 0.00 | 69 | 1014.6 |
| 20260831140039 | 51 | 250 | 2.6 | 6.1 | 0.00 | 0.00 | 0.00 | 70 | 1014.8 |
| 20260831134542 | 50 | 248 | 1.7 | 4.3 | 0.00 | 0.00 | 0.00 | 71 | 1014.6 |
| 20260831133049 | 50 | 248 | 2.6 | 6.1 | 0.00 | 0.00 | 0.00 | 73 | 1014.6 |